www.pogodaiklimat.ru

Погода и климат >> Архив погоды >> Россия >> Оренбургская область >> Кувандык


ПОГОДА в Кувандыке

  • Прогноз погоды в Кувандыке
  • Монитор погоды в Кувандыке

АРХИВ ПОГОДЫ в Кувандыке

Время (UTC), дата Ветер
(напр.,м/с)
 
Видим.   Явления Облачность Т
(С)
Тd
(С)
f
(%)
Тe
(С)
Тes
(С)
Комфортность P
(гПа)
Po
(гПа)
Тmin
(С)
Tmax
(С)
R
(мм)
R24
(мм)
S
(см)
18 14.07 штиль 0 20 км 8/4 600 м
[Cb calv Ac As]
+19.8 +18.7 93 +22 +22 комфорт 1001.9 977.1
21 14.07 В 4 20 км 10/5 600 м
[Cb calv Ac As]
+26.6 +15.4 50 +29 +29 жарко 997.2 973.0
00 15.07 ЮВ 4
{15}
10 км слаб. ливневой дождь, в посл. час гроза 10/10 750 м
[]
+27.0 +5.0 24 +26 +26 жарко 993.5 969.3 895
03 15.07 Ю 2
{11}
50 км {гроза, ливн. осадки} 10/5 600 м
[Cb calv Ac und]
+19.4 +18.1 92 +22 +23 комфорт 996.6 971.9 +18.5 0.0
06 15.07 ЮЗ 5
{11}
50 км {гроза, ливн. осадки} 10/8 630 м
[Cb calv Ac und]
+19.4 +15.3 77 +21 +21 комфорт 1000.8 976.0
09 15.07 З 7-11
{13}
50 км 10/8 800 м
[Cb calv Ac und]
+19.4 +14.9 75 +21 +21 комфорт 1003.1 978.2
12 15.07 З 5
{12}
50 км 8/6 600 м
[Cb calv Ci fib]
+21.7 +12.7 57 +24 +26 комфорт 1005.1 980.3
15 15.07 З 6-11
{12}
50 км 3/3 600 м
[Cb calv Ci fib]
+21.4 +10.3 49 +23 +23 комфорт 1006.6 981.8 +22.9
18 15.07 штиль 0
{11}
20 км 1/0
[Ci fib]
+12.3 +10.0 86 +12 +12 1009.7 984.0
21 15.07 штиль 0 20 км ясно +9.5 +9.1 97 +9 +9 1010.5 984.5
00 16.07 штиль 0 50 км ясно +6.9 +6.9 100 +6 +6 1011.9 985.6
03 16.07 штиль 0 50 км ясно +16.3 +11.9 75 +16 +21 1012.2 986.8 +5.9
06 16.07 З 4 50 км 3/3 1000 м
[Cu med, cong]
+23.0 +12.3 51 +26 +32 жарко 1012.1 987.2
09 16.07 СЗ 4
{11}
50 км ясно +26.4 +8.9 33 +27 +37 жарко 1011.4 986.8
12 16.07 СЗ 3 50 км 3/0
[Ci fib]
+28.0 +8.2 29 +28 +34 жарко 1011.0 986.5
15 16.07 СЗ 1 50 км 8/0
[Ac trans Ci]
+24.6 +10.5 41 +26 +26 жарко 1011.3 986.6 +28.1
18 16.07 Ю 1 20 км 3/0
[Ac trans Ci fib]
+14.5 +11.5 82 +15 +15 1013.5 987.9
21 16.07 Ю 1 20 км 9/0
[Ac As Ci fib]
+11.8 +10.9 94 +12 +12 1014.4 988.6
00 17.07 В 1 50 км 9/0
[Ac As Ci fib]
+11.3 +10.4 94 +11 +11 1014.9 988.9
03 17.07 Ю 1 50 км 9/3 600 м
[Cb calv Ac As Ci fib]
+18.6 +13.8 74 +20 +22 1014.2 988.9 +10.2
06 17.07 Ю 2 50 км 4/0
[Ac As Cc]
+27.1 +10.7 36 +28 +38 жарко 1012.2 987.6
09 17.07 ЮВ 2 50 км 5/0
[Ac lent Cc]
+31.4 +3.6 17 +29 +40 жарко 1010.9 986.7
12 17.07 ЮВ 3 50 км 9/3 600 м
[Cb calv Ac As Ci fib]
+32.5 +3.6 16 +30 +32 жарко 1009.4 985.4
15 17.07 З 4 50 км 9/5 600 м
[Cb calv Ac As Ci fib]
+28.3 +9.8 31 +28 +28 жарко 1009.8 985.4 +33.3
18 17.07 С 4
{11}
20 км 9/4 600 м
[Cb calv Ac As Ci fib]
+23.7 +11.7 47 +25 +25 комфорт 1010.0 985.3
21 17.07 Ю 1 20 км 3/0
[Ci fib]
+16.7 +12.2 75 +18 +18 1010.5 985.2
00 18.07 штиль 0 50 км 1/0
[Ac trans]
+12.0 +11.2 95 +11 +11 1010.9 985.1
03 18.07 штиль 0 50 км 8/3 600 м
[Cb calv Ac As]
+20.5 +14.1 67 +23 +24 комфорт 1010.0 985.0 +11.5
06 18.07 Ю 4 50 км 9/6 600 м
[Cb calv Ac As Ci fib]
+31.7 +4.2 18 +29 +32 жарко 1008.1 984.0
09 18.07 Ю 4
{11}
50 км 9/3 600 м
[Cb calv Ac As Ci fib]
+35.2 +3.0 13 +32 +36 жарко 1007.0 983.1
12 18.07 СЗ 4
{10}
50 км 10/5 600 м
[Cb calv Ac und]
+31.7 +10.3 27 +31 +32 жарко 1006.4 982.4
15 18.07 Ю 2 50 км 8/4 600 м
[Cb calv Ac As Ci fib]
+33.5 +8.1 21 +32 +32 жарко 1005.8 981.9 +36.3
18 18.07 Ю 2 20 км 4/3 600 м
[Cb calv Ac As Ci fib]
+25.4 +12.0 43 +27 +27 жарко 1006.9 982.3
21 18.07 ЮВ 1 20 км 8/5 600 м
[Cb calv Ac As Ci fib]
+20.6 +12.1 58 +24 +24 комфорт 1007.6 982.6
00 19.07 штиль 0 50 км 8/5 600 м
[Cb calv Ac As]
+16.8 +12.3 75 +17 +17 1009.2 983.9
03 19.07 СЗ 1 50 км 8/5 600 м
[Cb calv Ac As Ci fib]
+20.2 +15.6 75 +24 +25 комфорт 1009.4 984.4 +15.8
06 19.07 СЗ 1 50 км 9/4 600 м
[Cb calv Ac As Ci fib]
+30.7 +12.2 32 +31 +37 жарко 1007.9 983.8
09 19.07 ЮВ 2 50 км 10/5 600 м
[Cb calv Ac und]
+33.4 +9.9 24 +33 +35 жарко 1006.6 982.7
12 19.07 ЮВ 2 50 км 10/6 600 м
[Cb calv Ac und]
+31.0 +12.7 33 +32 +33 жарко 1007.3 983.2
15 19.07 В 5 50 км 9/5 600 м
[Cb calv Ac As]
+30.7 +9.4 27 +30 +30 жарко 1005.2 981.1 +35.7
18 19.07 СВ 4
{11}
20 км 9/6 600 м
[Cb calv Ac As]
+28.1 +10.0 32 +28 +28 жарко 1004.8 980.5
21 19.07 СВ 7-11
{11}
20 км 6/0
[Ac As Ci fib]
+28.2 +8.2 28 +28 +28 жарко 1004.6 980.3
00 20.07 СВ 9-15
{15}
50 км 4/0
[Ac As Ci fib]
+27.0 +9.8 34 +27 +27 жарко 1003.6 979.3
03 20.07 СВ 6-12
{16}
50 км ясно +26.9 +11.1 37 +28 +29 жарко 1003.6 979.3 +25.8
06 20.07 СВ 4
{10}
50 км ясно +32.2 +7.5 22 +31 +40 жарко 1003.4 979.5
09 20.07 С 3 50 км 3/0
[Ci fib]
+36.3 +5.8 15 +34 +46 очень
жарко
1002.4 978.8
12 20.07 СЗ 6-13
{13}
50 км 6/0
[Ci fib]
+36.3 +10.7 21 +35 +38 очень
жарко
1001.7 978.2
15 20.07 СЗ 5
{14}
50 км 4/0
[Ac As Ci]
+30.0 +17.3 46 +34 +34 очень
душно
1004.1 980.1 +37.6
18 20.07 З 5-11
{11}
20 км 4/0
[Ac As Ci fib]
+25.1 +17.1 61 +29 +29 душно 1005.9 981.5
21 20.07 З 6-11
{12}
20 км ясно +22.2 +13.2 57 +25 +25 комфорт 1006.9 982.1
00 21.07 З 4
{12}
50 км ясно +20.8 +12.7 60 +23 +23 комфорт 1008.3 983.3
03 21.07 СЗ 2 50 км ясно +22.9 +14.5 59 +27 +30 душно 1010.1 985.3 +19.3
06 21.07 С 7-12
{12}
50 км 1/1 1000 м
[Cu hum]
+28.2 +11.4 35 +29 +32 жарко 1010.3 985.9
09 21.07 СЗ 6-12
{12}
50 км 8/6 600 м
[Cb cap Ci fib]
+28.1 +12.0 37 +29 +31 жарко 1010.8 986.4
12 21.07 З 6-12
{16}
50 км 3/3 1000 м
[Cu hum]
+29.4 +6.3 23 +28 +30 жарко 1011.3 986.9
15 21.07 СЗ 4
{12}
50 км 4/4 1000 м
[Cu med, cong]
+26.9 +6.3 27 +26 +26 жарко 1011.9 987.3 +29.8

 

Местоположение метеостанции Кувандык (Оренбургская область, Россия): широта 51.47 долгота 57.37 высота над уровнем моря 225 м.

В архиве по умолчанию представлена погода в Кувандыке за последнюю неделю. Архивные данные за месяц целиком и за предыдущие месяцы, начиная с января 2011 года, Вы можете получить, выбрав интересующий диапазон дат из раскрывающегося списка и нажав кнопку "Ввод!".


*Определитесь, кто Вы:
робот инопланетянин человек

Внимание! Время в таблицах - всемирное. Для получения местного времени необходимо прибавить поправку, которая равна 5 ч.

Смотрите также архив погоды в соседних городах и на ближайших метеорологических станциях:

Погода в Беляевке (Оренбургская область, Россия) (66 км)
Погода в Акъяре (Башкирия, Россия) (71 км)
Погода в Зилаире (Башкирия, Россия) (83 км)
Погода в Кос-Истеке (Актюбинская область, Казахстан) (90 км)
Погода в Родниковке (Актюбинская область, Казахстан) (93 км)
Погода в Орске (Оренбургская область, Россия) (96 км)
Погода в Мартуке (Актюбинская область, Казахстан) (99 км)
Погода в Энергетике (Оренбургская область, Россия) (106 км)
Погода в Троицком Т (Оренбургская область, Россия) (118 км)
Погода в Степном (Актюбинская область, Казахстан) (124 км)

Пояснения к столбцам:

Ветер - указаны скорость ветра в м/с - средняя за 10 мин, порывы в срок и между сроками (в фигурных скобках) и направление, откуда дует ветер: С - северный, СВ - северо-восточный, В - восточный, ЮВ - юго-восточный, Ю - южный, ЮЗ - юго-западный, З - западный, СЗ - северо-западный.
Видимость - горизонтальная дальность видимости в метрах или километрах. При видимости от 1 до 10 км при отсутствии осадков обычно наблюдается дымка, при ухудшении видимости до 1 км и менее - туман. В сухую погоду видимость может ухудшаться дымом, пылью или мглою.
Явления - указаны атмосферные явления, наблюдавшиеся в срок или в последний час перед сроком; фигурными скобками обозначены явления, наблюдавшиеся между сроками (за 1-3 часа до срока); квадратными скобками обозначены град или гололедные отложения с указанием их диаметра в мм.
Облачность - указаны через наклонную черту общая и нижняя облачность в баллах и высота нижней границы облаков в метрах; квадратными скобками обозначены формы облаков: Ci - перистые, Cs - перисто-слоистые, Cc - перисто-кучевые, Ac - высококучевые, As - высокослоистые, Sc - слоисто-кучевые, Ns - слоисто-дождевые, Cu - кучевые, Cb - кучево-дождевые. Подробнее классификацию облаков см. в Атласе облаков (PDF).
T - Температура воздуха - температура, измеренная на высоте 2 м над землей.
Td - Температура точки росы - температура, при понижении до которой содержащийся в воздухе водяной пар достигнет насыщения.
f - Относительная влажность воздуха - влажноcть воздуха, измеренная на высоте 2 м над землей.
Te - Эффективная температура - температура, которую ощущает одетый по сезону человек в тени. Характеристика душности погоды. При расчете учитывается влияние влажности воздуха и скорости ветра на теплоощущения человека.
Tes - Эффективная температура на солнце - температура, которую ощущает человек, с поправкой на солнечный нагрев. Характеристика знойности погоды. Зависит от высоты солнца над горизонтом, облачности и скорости ветра. Ночью, в пасмурную погоду, а также при ветре 12 м/с и более поправка равна нулю.
P - Атмосферное давление - приведенное к уровню моря атмосферное давление.
Po - Атмосферное давление - измеренное на уровне метеостанции атмосферное давление.
Tmin - Минимальная температура - минимум температуры воздуха на высоте 2 м над землей.
Tmax - Максимальная температура - максимум температуры воздуха на высоте 2 м над землей.
R - Количество осадков - Количество выпавших осадков за период времени, мм. При наведении курсора мыши на число - период времени, за который выпало указанное количество осадков.
R24 - Количество осадков - Количество выпавших осадков за 24 часа, мм.
S - Снежный покров - Высота снежного покрова, см. При наведении курсора мыши на число - состояние снежного покрова и степень покрытия местности в баллах.